contact:dominique.lefevre@mio.osupytheas.fr, maurice.libes@osupytheas.fr, didier.mallarino@osupytheas.fr
Project:EMSO http://www.emso-fr.org/EMSO-France
Depth: 2436.0 m
Title:EMSO Ligure Ouest : Data MII capteur CSTAR
DateTime,Latitude,Longitude,Instrument_Serial,Reference_Counts,Signal_Counts,Corrected_Signal_raw_counts,Calculated_Beam_c_inverse_meters,Internal_thermistor_counts
DateTime,Latitude,Longitude,Instrument_Serial,Reference_Counts,Signal_Counts,Corrected_Signal_raw_counts,Calculated_Beam_c_inverse_meters,Internal_thermistor_counts
2019-10-21T00:00:56,42.805,6.029,CST-1368DR,7554,10580,15332,0.073,551
2019-10-21T00:03:58,42.805,6.029,CST-1368DR,7554,10581,15334,0.073,551
2019-10-21T00:06:59,42.805,6.029,CST-1368DR,7554,10579,15330,0.074,551
2019-10-21T00:10:01,42.805,6.029,CST-1368DR,7554,10579,15330,0.074,551
2019-10-21T00:13:03,42.805,6.029,CST-1368DR,7554,10580,15333,0.073,550
2019-10-21T00:16:04,42.805,6.029,CST-1368DR,7554,10580,15333,0.073,551
2019-10-21T00:19:06,42.805,6.029,CST-1368DR,7554,10581,15334,0.073,551
2019-10-21T00:22:08,42.805,6.029,CST-1368DR,7554,10581,15334,0.073,550
2019-10-21T00:25:09,42.805,6.029,CST-1368DR,7554,10582,15335,0.073,551
2019-10-21T00:28:11,42.805,6.029,CST-1368DR,7554,10579,15331,0.074,551
2019-10-21T00:31:13,42.805,6.029,CST-1368DR,7554,10581,15334,0.073,551
2019-10-21T00:34:14,42.805,6.029,CST-1368DR,7554,10578,15330,0.074,551
2019-10-21T00:37:16,42.805,6.029,CST-1368DR,7554,10581,15334,0.073,551
2019-10-21T00:40:17,42.805,6.029,CST-1368DR,7554,10580,15332,0.073,551
2019-10-21T00:43:19,42.805,6.029,CST-1368DR,7554,10581,15334,0.073,551
2019-10-21T00:46:21,42.805,6.029,CST-1368DR,7554,10579,15331,0.074,550
2019-10-21T00:49:22,42.805,6.029,CST-1368DR,7554,10581,15333,0.073,551
2019-10-21T00:52:24,42.805,6.029,CST-1368DR,7554,10580,15333,0.073,550
2019-10-21T00:55:26,42.805,6.029,CST-1368DR,7554,10581,15334,0.073,551
2019-10-21T00:58:27,42.805,6.029,CST-1368DR,7554,10579,15331,0.074,551
2019-10-21T01:01:29,42.805,6.029,CST-1368DR,7554,10580,15332,0.073,551
2019-10-21T01:04:31,42.805,6.029,CST-1368DR,7554,10581,15334,0.073,551
2019-10-21T01:07:32,42.805,6.029,CST-1368DR,7554,10580,15333,0.073,550
2019-10-21T01:10:34,42.805,6.029,CST-1368DR,7554,10581,15333,0.073,551
2019-10-21T01:13:36,42.805,6.029,CST-1368DR,7554,10579,15330,0.074,551
2019-10-21T01:16:37,42.805,6.029,CST-1368DR,7554,10581,15334,0.073,551
2019-10-21T01:19:39,42.805,6.029,CST-1368DR,7554,10579,15331,0.074,551
2019-10-21T01:22:41,42.805,6.029,CST-1368DR,7554,10581,15333,0.073,551
2019-10-21T01:25:42,42.805,6.029,CST-1368DR,7554,10581,15333,0.073,551
2019-10-21T01:28:44,42.805,6.029,CST-1368DR,7554,10581,15334,0.073,551
2019-10-21T01:31:45,42.805,6.029,CST-1368DR,7554,10579,15331,0.074,550
2019-10-21T01:34:47,42.805,6.029,CST-1368DR,7554,10581,15334,0.073,550
2019-10-21T01:37:49,42.805,6.029,CST-1368DR,7554,10580,15332,0.073,551
2019-10-21T01:40:50,42.805,6.029,CST-1368DR,7554,10581,15333,0.073,551
2019-10-21T01:43:52,42.805,6.029,CST-1368DR,7554,10581,15334,0.073,551
2019-10-21T01:46:54,42.805,6.029,CST-1368DR,7554,10581,15333,0.073,550
2019-10-21T01:49:55,42.805,6.029,CST-1368DR,7554,10579,15331,0.074,551
2019-10-21T01:52:57,42.805,6.029,CST-1368DR,7554,10580,15332,0.073,551
2019-10-21T01:55:59,42.805,6.029,CST-1368DR,7554,10581,15334,0.073,551
2019-10-21T01:59:00,42.805,6.029,CST-1368DR,7554,10580,15332,0.073,550
2019-10-21T02:02:02,42.805,6.029,CST-1368DR,7554,10581,15333,0.073,551
2019-10-21T02:05:04,42.805,6.029,CST-1368DR,7554,10579,15331,0.074,551
2019-10-21T02:08:05,42.805,6.029,CST-1368DR,7554,10580,15332,0.073,551
2019-10-21T02:11:07,42.805,6.029,CST-1368DR,7554,10581,15334,0.073,551
2019-10-21T02:14:08,42.805,6.029,CST-1368DR,7554,10580,15333,0.073,551
2019-10-21T02:17:10,42.805,6.029,CST-1368DR,7553,10464,15167,0.117,551
2019-10-21T02:20:12,42.805,6.029,CST-1368DR,7554,10579,15330,0.074,551
2019-10-21T02:23:14,42.805,6.029,CST-1368DR,7554,10579,15330,0.074,551
2019-10-21T02:26:15,42.805,6.029,CST-1368DR,7554,10581,15334,0.073,551
2019-10-21T02:29:17,42.805,6.029,CST-1368DR,7553,10579,15332,0.073,551
2019-10-21T02:32:19,42.805,6.029,CST-1368DR,7554,10580,15332,0.073,550
2019-10-21T02:35:20,42.805,6.029,CST-1368DR,7554,10579,15331,0.074,551
2019-10-21T02:38:22,42.805,6.029,CST-1368DR,7553,10580,15334,0.073,551
2019-10-21T02:41:24,42.805,6.029,CST-1368DR,7554,10579,15331,0.074,551
2019-10-21T02:44:25,42.805,6.029,CST-1368DR,7554,10581,15333,0.073,551
2019-10-21T02:47:27,42.805,6.029,CST-1368DR,7553,10581,15335,0.073,551
2019-10-21T02:50:28,42.805,6.029,CST-1368DR,7553,10580,15334,0.073,551
2019-10-21T02:53:30,42.805,6.029,CST-1368DR,7554,10580,15332,0.073,551
2019-10-21T02:56:32,42.805,6.029,CST-1368DR,7553,10581,15335,0.073,551
2019-10-21T02:59:33,42.805,6.029,CST-1368DR,7553,10581,15335,0.073,551
2019-10-21T03:02:35,42.805,6.029,CST-1368DR,7553,10581,15335,0.073,551
2019-10-21T03:05:37,42.805,6.029,CST-1368DR,7553,10580,15334,0.073,551
2019-10-21T03:08:38,42.805,6.029,CST-1368DR,7553,10578,15331,0.074,551
2019-10-21T03:11:40,42.805,6.029,CST-1368DR,7553,10579,15333,0.073,551
2019-10-21T03:14:42,42.805,6.029,CST-1368DR,7553,10579,15333,0.073,551
2019-10-21T03:17:43,42.805,6.029,CST-1368DR,7553,10581,15335,0.073,550
2019-10-21T03:20:45,42.805,6.029,CST-1368DR,7553,10581,15336,0.072,551
2019-10-21T03:23:47,42.805,6.029,CST-1368DR,7553,10582,15337,0.072,551
2019-10-21T03:26:48,42.805,6.029,CST-1368DR,7553,10580,15335,0.073,551
2019-10-21T03:29:50,42.805,6.029,CST-1368DR,7553,10581,15336,0.072,551
2019-10-21T03:32:52,42.805,6.029,CST-1368DR,7553,10580,15334,0.073,551
2019-10-21T03:35:53,42.805,6.029,CST-1368DR,7553,10581,15335,0.073,551
2019-10-21T03:38:55,42.805,6.029,CST-1368DR,7553,10582,15337,0.072,551
2019-10-21T03:41:56,42.805,6.029,CST-1368DR,7553,10581,15336,0.072,551
2019-10-21T03:44:58,42.805,6.029,CST-1368DR,7553,10580,15334,0.073,551
2019-10-21T03:48:00,42.805,6.029,CST-1368DR,7553,10580,15335,0.073,551
2019-10-21T03:51:01,42.805,6.029,CST-1368DR,7553,10580,15335,0.073,551
2019-10-21T03:54:03,42.805,6.029,CST-1368DR,7553,10582,15337,0.072,551
2019-10-21T03:57:05,42.805,6.029,CST-1368DR,7553,10582,15337,0.072,551
2019-10-21T04:00:06,42.805,6.029,CST-1368DR,7553,10581,15335,0.073,550
2019-10-21T04:03:08,42.805,6.029,CST-1368DR,7553,10579,15333,0.073,551
2019-10-21T04:06:10,42.805,6.029,CST-1368DR,7553,10581,15336,0.072,551
2019-10-21T04:09:11,42.805,6.029,CST-1368DR,7553,10581,15336,0.072,551
2019-10-21T04:12:13,42.805,6.029,CST-1368DR,7553,10579,15333,0.073,550
2019-10-21T04:15:15,42.805,6.029,CST-1368DR,7553,10580,15335,0.073,551
2019-10-21T04:18:16,42.805,6.029,CST-1368DR,7553,10580,15335,0.073,551
2019-10-21T04:21:18,42.805,6.029,CST-1368DR,7553,10580,15335,0.073,551
2019-10-21T04:24:20,42.805,6.029,CST-1368DR,7553,10581,15335,0.073,551
2019-10-21T04:27:21,42.805,6.029,CST-1368DR,7553,10580,15335,0.073,551
2019-10-21T04:30:23,42.805,6.029,CST-1368DR,7553,10580,15335,0.073,550
2019-10-21T04:33:25,42.805,6.029,CST-1368DR,7553,10581,15336,0.072,551
2019-10-21T04:36:26,42.805,6.029,CST-1368DR,7553,10581,15335,0.073,551
2019-10-21T04:39:28,42.805,6.029,CST-1368DR,7553,10581,15335,0.073,551
2019-10-21T04:42:29,42.805,6.029,CST-1368DR,7553,10579,15333,0.073,551
2019-10-21T04:45:31,42.805,6.029,CST-1368DR,7553,10579,15333,0.073,550
2019-10-21T04:48:33,42.805,6.029,CST-1368DR,7553,10580,15334,0.073,551
2019-10-21T04:51:34,42.805,6.029,CST-1368DR,7553,10581,15335,0.073,551
2019-10-21T04:54:36,42.805,6.029,CST-1368DR,7553,10580,15334,0.073,551
2019-10-21T04:57:38,42.805,6.029,CST-1368DR,7553,10580,15335,0.073,551
2019-10-21T05:00:39,42.805,6.029,CST-1368DR,7553,10581,15335,0.073,551
2019-10-21T05:03:41,42.805,6.029,CST-1368DR,7553,10579,15333,0.073,551
2019-10-21T05:06:43,42.805,6.029,CST-1368DR,7550,10195,14782,0.220,550
2019-10-21T05:09:44,42.805,6.029,CST-1368DR,7553,10581,15335,0.073,550
2019-10-21T05:12:46,42.805,6.029,CST-1368DR,7553,10581,15335,0.073,551
2019-10-21T05:15:48,42.805,6.029,CST-1368DR,7553,10579,15333,0.073,551
2019-10-21T05:18:49,42.805,6.029,CST-1368DR,7553,10576,15328,0.074,551
2019-10-21T05:21:51,42.805,6.029,CST-1368DR,7553,10581,15336,0.072,551
2019-10-21T05:24:53,42.805,6.029,CST-1368DR,7553,10581,15335,0.073,551
2019-10-21T05:27:54,42.805,6.029,CST-1368DR,7553,10579,15333,0.073,551
2019-10-21T05:30:56,42.805,6.029,CST-1368DR,7553,10580,15334,0.073,551
2019-10-21T05:33:58,42.805,6.029,CST-1368DR,7552,10580,15337,0.072,551
2019-10-21T05:36:59,42.805,6.029,CST-1368DR,7552,10581,15337,0.072,551
2019-10-21T05:40:01,42.805,6.029,CST-1368DR,7553,10580,15334,0.073,551
2019-10-21T05:43:03,42.805,6.029,CST-1368DR,7552,10580,15337,0.072,551
2019-10-21T05:46:04,42.805,6.029,CST-1368DR,7552,10578,15334,0.073,551
2019-10-21T05:49:06,42.805,6.029,CST-1368DR,7552,10579,15335,0.073,551
2019-10-21T05:52:08,42.805,6.029,CST-1368DR,7552,10581,15337,0.072,551
2019-10-21T05:55:09,42.805,6.029,CST-1368DR,7552,10579,15334,0.073,551
2019-10-21T05:58:11,42.805,6.029,CST-1368DR,7552,10580,15335,0.073,550
2019-10-21T06:01:13,42.805,6.029,CST-1368DR,7552,10580,15336,0.072,551
2019-10-21T06:04:14,42.805,6.029,CST-1368DR,7552,10579,15334,0.073,551
2019-10-21T06:07:16,42.805,6.029,CST-1368DR,7552,10579,15335,0.073,551
2019-10-21T06:10:18,42.805,6.029,CST-1368DR,7552,10575,15328,0.074,551
2019-10-21T06:13:19,42.805,6.029,CST-1368DR,7552,10579,15335,0.073,551
2019-10-21T06:16:21,42.805,6.029,CST-1368DR,7552,10579,15334,0.073,551
2019-10-21T06:19:23,42.805,6.029,CST-1368DR,7552,10578,15333,0.073,551
2019-10-21T06:22:24,42.805,6.029,CST-1368DR,7552,10580,15335,0.073,551
2019-10-21T06:25:26,42.805,6.029,CST-1368DR,7552,10579,15334,0.073,551
2019-10-21T06:28:28,42.805,6.029,CST-1368DR,7552,10579,15334,0.073,550
2019-10-21T06:31:29,42.805,6.029,CST-1368DR,7552,10579,15335,0.073,551
2019-10-21T06:34:31,42.805,6.029,CST-1368DR,7552,10579,15335,0.073,551
2019-10-21T06:37:33,42.805,6.029,CST-1368DR,7552,10578,15334,0.073,551
2019-10-21T06:40:34,42.805,6.029,CST-1368DR,7552,10579,15334,0.073,551
2019-10-21T06:43:36,42.805,6.029,CST-1368DR,7552,10579,15334,0.073,551
2019-10-21T06:46:38,42.805,6.029,CST-1368DR,7552,10580,15335,0.073,550
2019-10-21T06:49:39,42.805,6.029,CST-1368DR,7552,10579,15334,0.073,551
2019-10-21T06:52:41,42.805,6.029,CST-1368DR,7552,10579,15334,0.073,551
2019-10-21T06:55:43,42.805,6.029,CST-1368DR,7552,10579,15335,0.073,551
2019-10-21T06:58:44,42.805,6.029,CST-1368DR,7552,10576,15330,0.074,551
2019-10-21T07:01:46,42.805,6.029,CST-1368DR,7552,10578,15333,0.073,551
2019-10-21T07:04:48,42.805,6.029,CST-1368DR,7552,10578,15334,0.073,551
2019-10-21T07:07:49,42.805,6.029,CST-1368DR,7552,10577,15332,0.073,550
2019-10-21T07:10:51,42.805,6.029,CST-1368DR,7552,10578,15334,0.073,551
2019-10-21T07:13:52,42.805,6.029,CST-1368DR,7552,10579,15335,0.073,551
2019-10-21T07:16:54,42.805,6.029,CST-1368DR,7552,10579,15334,0.073,551
2019-10-21T07:19:56,42.805,6.029,CST-1368DR,7552,10579,15335,0.073,551
2019-10-21T07:22:57,42.805,6.029,CST-1368DR,7552,10577,15332,0.073,551
2019-10-21T07:25:59,42.805,6.029,CST-1368DR,7552,10578,15333,0.073,551
2019-10-21T07:29:01,42.805,6.029,CST-1368DR,7552,10577,15332,0.073,551
2019-10-21T07:32:03,42.805,6.029,CST-1368DR,7552,10577,15332,0.073,551
2019-10-21T07:35:04,42.805,6.029,CST-1368DR,7552,10579,15334,0.073,551
2019-10-21T07:38:06,42.805,6.029,CST-1368DR,7552,10577,15332,0.073,551
2019-10-21T07:41:08,42.805,6.029,CST-1368DR,7552,10579,15334,0.073,551
2019-10-21T07:44:10,42.805,6.029,CST-1368DR,7552,10578,15334,0.073,551
2019-10-21T07:47:11,42.805,6.029,CST-1368DR,7552,10579,15335,0.073,551
2019-10-21T07:50:13,42.805,6.029,CST-1368DR,7552,10579,15334,0.073,551
2019-10-21T07:53:14,42.805,6.029,CST-1368DR,7552,10579,15334,0.073,550
2019-10-21T07:56:16,42.805,6.029,CST-1368DR,7552,10578,15333,0.073,551
2019-10-21T07:59:18,42.805,6.029,CST-1368DR,7552,10578,15333,0.073,551
2019-10-21T08:02:19,42.805,6.029,CST-1368DR,7552,10579,15334,0.073,551
2019-10-21T08:05:21,42.805,6.029,CST-1368DR,7552,10578,15333,0.073,550
2019-10-21T08:08:23,42.805,6.029,CST-1368DR,7552,10578,15333,0.073,551
2019-10-21T08:11:24,42.805,6.029,CST-1368DR,7552,10578,15333,0.073,551
2019-10-21T08:14:26,42.805,6.029,CST-1368DR,7552,10577,15332,0.073,551
2019-10-21T08:17:28,42.805,6.029,CST-1368DR,7552,10579,15334,0.073,551
2019-10-21T08:20:29,42.805,6.029,CST-1368DR,7552,10578,15333,0.073,550
2019-10-21T08:23:31,42.805,6.029,CST-1368DR,7552,10579,15334,0.073,551
2019-10-21T08:26:33,42.805,6.029,CST-1368DR,7552,10577,15332,0.073,550
2019-10-21T08:29:34,42.805,6.029,CST-1368DR,7552,10577,15332,0.073,550
2019-10-21T08:32:36,42.805,6.029,CST-1368DR,7552,10577,15332,0.073,551
2019-10-21T08:35:38,42.805,6.029,CST-1368DR,7552,10578,15333,0.073,551
2019-10-21T08:38:39,42.805,6.029,CST-1368DR,7551,10577,15334,0.073,551
2019-10-21T08:41:41,42.805,6.029,CST-1368DR,7552,10578,15333,0.073,551
2019-10-21T08:44:43,42.805,6.029,CST-1368DR,7551,10579,15336,0.072,551
2019-10-21T08:47:44,42.805,6.029,CST-1368DR,7551,10575,15331,0.074,551
2019-10-21T08:50:46,42.805,6.029,CST-1368DR,7551,10578,15334,0.073,551
2019-10-21T08:53:47,42.805,6.029,CST-1368DR,7551,10577,15334,0.073,551
2019-10-21T08:56:49,42.805,6.029,CST-1368DR,7551,10578,15335,0.073,551
2019-10-21T08:59:51,42.805,6.029,CST-1368DR,7551,10578,15336,0.072,551
2019-10-21T09:02:52,42.805,6.029,CST-1368DR,7551,10577,15334,0.073,551
2019-10-21T09:05:54,42.805,6.029,CST-1368DR,7551,10579,15336,0.072,551
2019-10-21T09:08:56,42.805,6.029,CST-1368DR,7551,10577,15334,0.073,551
2019-10-21T09:11:57,42.805,6.029,CST-1368DR,7551,10578,15335,0.073,551
2019-10-21T09:14:59,42.805,6.029,CST-1368DR,7548,10023,14535,0.287,551
2019-10-21T09:18:01,42.805,6.029,CST-1368DR,7551,10577,15333,0.073,551
2019-10-21T09:21:02,42.805,6.029,CST-1368DR,7551,10578,15336,0.072,551
2019-10-21T09:24:04,42.805,6.029,CST-1368DR,7551,10578,15336,0.072,551
2019-10-21T09:27:06,42.805,6.029,CST-1368DR,7551,10577,15334,0.073,551
2019-10-21T09:30:07,42.805,6.029,CST-1368DR,7551,10577,15334,0.073,551
2019-10-21T09:33:09,42.805,6.029,CST-1368DR,7551,10578,15335,0.073,551
2019-10-21T09:36:11,42.805,6.029,CST-1368DR,7551,10578,15335,0.073,551
2019-10-21T09:39:12,42.805,6.029,CST-1368DR,7551,10579,15336,0.072,551
2019-10-21T09:42:14,42.805,6.029,CST-1368DR,7551,10578,15336,0.072,551
2019-10-21T09:45:16,42.805,6.029,CST-1368DR,7551,10578,15335,0.073,551
2019-10-21T09:48:17,42.805,6.029,CST-1368DR,7551,10578,15334,0.073,551
2019-10-21T09:51:19,42.805,6.029,CST-1368DR,7543,9699,14074,0.416,551
2019-10-21T09:54:20,42.805,6.029,CST-1368DR,7551,10578,15335,0.073,551
2019-10-21T09:57:22,42.805,6.029,CST-1368DR,7551,10574,15329,0.074,551
2019-10-21T10:00:24,42.805,6.029,CST-1368DR,7551,10576,15333,0.073,551
2019-10-21T10:03:25,42.805,6.029,CST-1368DR,7551,10578,15335,0.073,551
2019-10-21T10:06:27,42.805,6.029,CST-1368DR,7551,10578,15335,0.073,550
2019-10-21T10:09:29,42.805,6.029,CST-1368DR,7551,10575,15330,0.074,551
2019-10-21T10:12:30,42.805,6.029,CST-1368DR,7551,10577,15334,0.073,551
2019-10-21T10:15:32,42.805,6.029,CST-1368DR,7551,10579,15336,0.072,551
2019-10-21T10:18:34,42.805,6.029,CST-1368DR,7551,10579,15336,0.072,551
2019-10-21T10:21:36,42.805,6.029,CST-1368DR,7551,10577,15334,0.073,551
2019-10-21T10:24:37,42.805,6.029,CST-1368DR,7551,10578,15334,0.073,551
2019-10-21T10:27:39,42.805,6.029,CST-1368DR,7551,10576,15332,0.073,551
2019-10-21T10:30:40,42.805,6.029,CST-1368DR,7551,10574,15329,0.074,551
2019-10-21T10:33:42,42.805,6.029,CST-1368DR,7551,10579,15336,0.072,551
2019-10-21T10:36:44,42.805,6.029,CST-1368DR,7551,10575,15331,0.074,551
2019-10-21T10:39:45,42.805,6.029,CST-1368DR,7551,10578,15336,0.072,551
2019-10-21T10:42:47,42.805,6.029,CST-1368DR,7551,10578,15336,0.072,551
2019-10-21T10:45:49,42.805,6.029,CST-1368DR,7551,10575,15331,0.074,551
2019-10-21T10:48:50,42.805,6.029,CST-1368DR,7551,10578,15334,0.073,551
2019-10-21T10:51:52,42.805,6.029,CST-1368DR,7551,10577,15334,0.073,551
2019-10-21T10:54:54,42.805,6.029,CST-1368DR,7551,10578,15334,0.073,551
2019-10-21T10:57:56,42.805,6.029,CST-1368DR,7551,10578,15335,0.073,551
2019-10-21T11:00:57,42.805,6.029,CST-1368DR,7551,10577,15334,0.073,551
2019-10-21T11:03:59,42.805,6.029,CST-1368DR,7551,10577,15334,0.073,551
2019-10-21T11:07:00,42.805,6.029,CST-1368DR,7551,10578,15336,0.072,551
2019-10-21T11:10:02,42.805,6.029,CST-1368DR,7551,10578,15335,0.073,551
2019-10-21T11:13:04,42.805,6.029,CST-1368DR,7551,10578,15334,0.073,551
2019-10-21T11:16:05,42.805,6.029,CST-1368DR,7551,10576,15333,0.073,551
2019-10-21T11:19:07,42.805,6.029,CST-1368DR,7551,10578,15335,0.073,551
2019-10-21T11:22:09,42.805,6.029,CST-1368DR,7551,10578,15335,0.073,551
2019-10-21T11:25:10,42.805,6.029,CST-1368DR,7551,10577,15334,0.073,551
2019-10-21T11:28:12,42.805,6.029,CST-1368DR,7551,10577,15334,0.073,550
2019-10-21T11:31:14,42.805,6.029,CST-1368DR,7551,10576,15332,0.073,551
2019-10-21T11:34:15,42.805,6.029,CST-1368DR,7551,10577,15334,0.073,551
2019-10-21T11:37:17,42.805,6.029,CST-1368DR,7551,10578,15334,0.073,551
2019-10-21T11:40:19,42.805,6.029,CST-1368DR,7551,10575,15331,0.074,551
2019-10-21T11:43:20,42.805,6.029,CST-1368DR,7551,10578,15334,0.073,551
2019-10-21T11:46:22,42.805,6.029,CST-1368DR,7551,10576,15333,0.073,551
2019-10-21T11:49:23,42.805,6.029,CST-1368DR,7551,10576,15333,0.073,551
2019-10-21T11:52:25,42.805,6.029,CST-1368DR,7550,10577,15335,0.073,551
2019-10-21T11:55:27,42.805,6.029,CST-1368DR,7550,10577,15335,0.073,551
2019-10-21T11:58:28,42.805,6.029,CST-1368DR,7550,10576,15335,0.073,551
2019-10-21T12:01:30,42.805,6.029,CST-1368DR,7550,10577,15336,0.072,551
2019-10-21T12:04:32,42.805,6.029,CST-1368DR,7550,10577,15336,0.072,551
2019-10-21T12:07:34,42.805,6.029,CST-1368DR,7550,10576,15334,0.073,551
2019-10-21T12:10:35,42.805,6.029,CST-1368DR,7550,10576,15334,0.073,551
2019-10-21T12:13:37,42.805,6.029,CST-1368DR,7550,10575,15333,0.073,551
2019-10-21T12:16:39,42.805,6.029,CST-1368DR,7550,10573,15330,0.074,551
2019-10-21T12:19:40,42.805,6.029,CST-1368DR,7550,10577,15335,0.073,550
2019-10-21T12:22:42,42.805,6.029,CST-1368DR,7550,10578,15336,0.072,551
2019-10-21T12:25:43,42.805,6.029,CST-1368DR,7550,10575,15332,0.073,551
2019-10-21T12:28:45,42.805,6.029,CST-1368DR,7550,10575,15332,0.073,550
2019-10-21T12:31:47,42.805,6.029,CST-1368DR,7550,10576,15334,0.073,551
2019-10-21T12:34:48,42.805,6.029,CST-1368DR,7550,10577,15336,0.072,551
2019-10-21T12:37:50,42.805,6.029,CST-1368DR,7550,10575,15332,0.073,551
2019-10-21T12:40:52,42.805,6.029,CST-1368DR,7550,10576,15334,0.073,551
2019-10-21T12:43:53,42.805,6.029,CST-1368DR,7550,10575,15332,0.073,551
2019-10-21T12:46:55,42.805,6.029,CST-1368DR,7550,10575,15333,0.073,550
2019-10-21T12:49:57,42.805,6.029,CST-1368DR,7550,10576,15334,0.073,551
2019-10-21T12:52:58,42.805,6.029,CST-1368DR,7550,10578,15336,0.072,551
2019-10-21T12:56:00,42.805,6.029,CST-1368DR,7550,10576,15334,0.073,551
2019-10-21T12:59:02,42.805,6.029,CST-1368DR,7550,10576,15335,0.073,551
2019-10-21T13:02:03,42.805,6.029,CST-1368DR,7550,10577,15336,0.072,550
2019-10-21T13:05:05,42.805,6.029,CST-1368DR,7550,10577,15336,0.072,551
2019-10-21T13:08:06,42.805,6.029,CST-1368DR,7550,10576,15335,0.073,551
2019-10-21T13:11:08,42.805,6.029,CST-1368DR,7550,10577,15335,0.073,551
2019-10-21T13:14:10,42.805,6.029,CST-1368DR,7550,10575,15332,0.073,551
2019-10-21T13:17:11,42.805,6.029,CST-1368DR,7550,10577,15336,0.072,551
2019-10-21T13:20:13,42.805,6.029,CST-1368DR,7550,10577,15335,0.073,551
2019-10-21T13:23:15,42.805,6.029,CST-1368DR,7550,10577,15336,0.072,551
2019-10-21T13:26:16,42.805,6.029,CST-1368DR,7550,10578,15336,0.072,551
2019-10-21T13:29:18,42.805,6.029,CST-1368DR,7550,10575,15332,0.073,551
2019-10-21T13:32:20,42.805,6.029,CST-1368DR,7550,10577,15336,0.072,551
2019-10-21T13:35:21,42.805,6.029,CST-1368DR,7550,10577,15336,0.072,551
2019-10-21T13:38:23,42.805,6.029,CST-1368DR,7550,10575,15332,0.073,551
2019-10-21T13:41:25,42.805,6.029,CST-1368DR,7550,10575,15332,0.073,551
2019-10-21T13:44:26,42.805,6.029,CST-1368DR,7550,10575,15333,0.073,551
2019-10-21T13:47:28,42.805,6.029,CST-1368DR,7550,10574,15331,0.074,550
2019-10-21T13:50:29,42.805,6.029,CST-1368DR,7550,10578,15336,0.072,551
2019-10-21T13:53:31,42.805,6.029,CST-1368DR,7550,10576,15334,0.073,551
2019-10-21T13:56:33,42.805,6.029,CST-1368DR,7550,10576,15334,0.073,551
2019-10-21T13:59:34,42.805,6.029,CST-1368DR,7550,10574,15332,0.073,551
2019-10-21T14:02:36,42.805,6.029,CST-1368DR,7550,10575,15333,0.073,551
2019-10-21T14:05:38,42.805,6.029,CST-1368DR,7550,10574,15331,0.074,551
2019-10-21T14:08:40,42.805,6.029,CST-1368DR,7550,10576,15335,0.073,551
2019-10-21T14:11:41,42.805,6.029,CST-1368DR,7550,10576,15333,0.073,551
2019-10-21T14:14:43,42.805,6.029,CST-1368DR,7550,10574,15331,0.074,550
2019-10-21T14:17:45,42.805,6.029,CST-1368DR,7550,10576,15335,0.073,551
2019-10-21T14:20:46,42.805,6.029,CST-1368DR,7550,10576,15333,0.073,551
2019-10-21T14:23:48,42.805,6.029,CST-1368DR,7550,10574,15332,0.073,551
2019-10-21T14:26:49,42.805,6.029,CST-1368DR,7550,10572,15329,0.074,551
2019-10-21T14:29:51,42.805,6.029,CST-1368DR,7550,10575,15333,0.073,551
2019-10-21T14:32:53,42.805,6.029,CST-1368DR,7550,10573,15329,0.074,551
2019-10-21T14:35:54,42.805,6.029,CST-1368DR,7550,10576,15333,0.073,551
2019-10-21T14:38:56,42.805,6.029,CST-1368DR,7550,10568,15322,0.076,551
2019-10-21T14:41:58,42.805,6.029,CST-1368DR,7550,10577,15335,0.073,551
2019-10-21T14:44:59,42.805,6.029,CST-1368DR,7550,10576,15335,0.073,551
2019-10-21T14:48:01,42.805,6.029,CST-1368DR,7550,10575,15333,0.073,550
2019-10-21T14:51:03,42.805,6.029,CST-1368DR,7550,10574,15331,0.074,551
2019-10-21T14:54:04,42.805,6.029,CST-1368DR,7550,10576,15334,0.073,551
2019-10-21T14:57:06,42.805,6.029,CST-1368DR,7550,10576,15334,0.073,551
2019-10-21T15:00:07,42.805,6.029,CST-1368DR,7550,10576,15334,0.073,551
2019-10-21T15:03:09,42.805,6.029,CST-1368DR,7550,10576,15333,0.073,551
2019-10-21T15:06:11,42.805,6.029,CST-1368DR,7549,10574,15333,0.073,551
2019-10-21T15:09:12,42.805,6.029,CST-1368DR,7550,10573,15330,0.074,551
2019-10-21T15:12:14,42.805,6.029,CST-1368DR,7550,10576,15333,0.073,551
2019-10-21T15:15:16,42.805,6.029,CST-1368DR,7550,10576,15334,0.073,551
2019-10-21T15:18:17,42.805,6.029,CST-1368DR,7550,10576,15334,0.073,551
2019-10-21T15:21:19,42.805,6.029,CST-1368DR,7550,10575,15333,0.073,551
2019-10-21T15:24:21,42.805,6.029,CST-1368DR,7549,10575,15334,0.073,551
2019-10-21T15:27:22,42.805,6.029,CST-1368DR,7549,10576,15336,0.072,551
2019-10-21T15:30:24,42.805,6.029,CST-1368DR,7549,10576,15336,0.072,551
2019-10-21T15:33:26,42.805,6.029,CST-1368DR,7549,10574,15334,0.073,551
2019-10-21T15:36:27,42.805,6.029,CST-1368DR,7550,10577,15335,0.073,551
2019-10-21T15:39:29,42.805,6.029,CST-1368DR,7549,10575,15335,0.073,550
2019-10-21T15:42:31,42.805,6.029,CST-1368DR,7550,10576,15333,0.073,551
2019-10-21T15:45:32,42.805,6.029,CST-1368DR,7550,10576,15334,0.073,551
2019-10-21T15:48:34,42.805,6.029,CST-1368DR,7550,10576,15333,0.073,551
2019-10-21T15:51:36,42.805,6.029,CST-1368DR,7550,10575,15333,0.073,551
2019-10-21T15:54:37,42.805,6.029,CST-1368DR,7549,10576,15335,0.073,551
2019-10-21T15:57:39,42.805,6.029,CST-1368DR,7549,10576,15336,0.072,551
2019-10-21T16:00:40,42.805,6.029,CST-1368DR,7549,10576,15336,0.072,550
2019-10-21T16:03:42,42.805,6.029,CST-1368DR,7549,10575,15335,0.073,551
2019-10-21T16:06:44,42.805,6.029,CST-1368DR,7549,10573,15332,0.073,551
2019-10-21T16:09:45,42.805,6.029,CST-1368DR,7549,10576,15335,0.073,550
2019-10-21T16:12:47,42.805,6.029,CST-1368DR,7549,10575,15335,0.073,551
2019-10-21T16:15:49,42.805,6.029,CST-1368DR,7549,10575,15335,0.073,551
2019-10-21T16:18:50,42.805,6.029,CST-1368DR,7549,10575,15335,0.073,551
2019-10-21T16:21:52,42.805,6.029,CST-1368DR,7549,10573,15332,0.073,551
2019-10-21T16:24:54,42.805,6.029,CST-1368DR,7549,10575,15334,0.073,551
2019-10-21T16:27:55,42.805,6.029,CST-1368DR,7549,10574,15333,0.073,551
2019-10-21T16:30:57,42.805,6.029,CST-1368DR,7549,10574,15334,0.073,551
2019-10-21T16:33:59,42.805,6.029,CST-1368DR,7549,10574,15334,0.073,551
2019-10-21T16:37:00,42.805,6.029,CST-1368DR,7549,10575,15334,0.073,551